BD-2-G7 (41586 NORAD) Tracking and Keplerian Element Data

This shows tracking and keplerian element data for the satellite.

Feedback or suggestion? Click here.




ElementValue
Catalog41586
NameBD-2-G7
Epoch Orbit929
Epoch Day347.90173529
Epoch Year2018
RAAN15.6291
Inclination0.7397
Eccentricity0.0008273
Argument of Perigee18.963
Mean Anonmoly123.0255
Mean Motion1.00278447
Decay Rate-3.45E-06
L11 41586U 16037A 18347.90173529 -.00000345 00000-0 00000-0 0 9993
L22 41586 0.7397 15.6291 0008273 18.9630 123.0255 1.00278447 9294

Live tracking and technical data element details for BD-2-G7 (NORAD 41586). BD-2-G7 can be tracked NOW for your location showing map with azimuth and elevation plus other details from your city location.

Track the satellite on the map from your city or location and see movement details for azimuth, elevation, latitude, longitude, range, height, and movement on the map or in text.







IsCatalogInMostPopularTable: catalog: 41586, numindb: 120
Update: records affected: 1



GetName: 41586 BD-2-G7

Hit Count: updated at: Sun, 16 Dec 2018 10:49:16 GMT